#timestamp,LO_Frequency,Hit,StdDev 
1540213215.3,286046999.4,N
1540213235.1,286046999.5,N
1540213236.0,286046999.5,N
1540213255.8,286046998.6,N
1540213275.7,286046996.7,N
1540213295.5,286046997.4,N
1540213315.3,286046995.0,N
1540213335.2,286046998.0,N
1540213355.0,286046997.5,N
1540213355.9,286046997.5,N
1540213375.8,286046999.5,N
1540213395.6,286047000.8,N
1540213415.4,286046996.5,N
1540213435.3,286046997.4,N
1540213455.1,286046995.4,N
1540213475.8,286046995.7,N
1540213495.7,286046995.7,N
1540213515.5,286046996.1,N
1540213535.4,286046993.9,N
1540213555.2,286046994.6,N
1540213575.0,286046993.8,N
1540213575.9,286046993.8,N
1540213595.8,286046993.4,N
1540213615.6,286046994.3,N
1540213635.4,286046996.4,N
1540213655.3,286046996.2,N
1540213675.1,286046996.0,N
1540213695.9,286046993.3,N
1540213715.7,286046994.3,N
1540213735.5,286046991.8,Y
1540213755.4,286046996.1,P
1540213775.2,286046995.6,P
1540213795.0,286046995.9,P
1540213796.0,286046995.9,Y
1540213815.8,286046999.1,P
1540213835.6,286046996.7,N
1540213855.5,286046997.8,N
1540213875.3,286046997.4,N
1540213895.1,286046997.9,N
1540213915.9,286046997.9,N
1540213935.7,286046996.8,Y
1540213955.6,286046998.6,P
1540213975.4,286046999.0,N
1540213995.2,286046998.6,N
1540214015.1,286046998.9,N
1540214016.0,286046998.9,N
1540214035.8,286047001.2,N
1540214055.6,286047000.7,N
1540214075.5,286046998.1,N
1540214095.3,286047001.1,N
1540214115.2,286046998.1,N
1540214135.9,286047002.4,N
1540214155.7,286047000.3,N
1540214175.6,286046999.8,N
1540214195.4,286047002.2,N
1540214215.2,286047003.4,N
1540214235.1,286047003.4,N
1540214236.0,286047003.4,N
1540214255.8,286047001.8,N
1540214275.7,286047000.0,N
1540214295.5,286047000.7,N
1540214315.3,286046998.5,N
1540214335.2,286046998.3,N
1540214355.0,286046999.2,N
1540214355.9,286046999.2,N
1540214375.7,286046998.8,N
1540214395.6,286046998.4,N
1540214415.4,286046999.4,N
1540214435.3,286046998.2,N
1540214455.1,286046999.9,N
1540214456.0,286046999.9,N
1540214475.8,286047002.8,N
1540214495.7,286047002.6,N
1540214515.5,286046999.9,N
1540214535.3,286047002.4,N
1540214555.2,286047000.5,N
1540214575.0,286047004.3,N
1540214575.9,286047004.3,N
1540214595.8,286047001.6,N
1540214615.6,286047002.1,N
1540214635.4,286047001.6,N
1540214655.3,286047003.7,N
1540214675.1,286047001.7,N
1540214695.9,286047011.9,Y
1540214715.7,286047001.7,P
1540214735.5,286047002.0,P
1540214755.4,286047002.1,P
1540214775.2,286047002.1,Y
1540214795.0,286047000.7,P
1540214795.9,286047000.7,N
1540214815.8,286047002.3,P
1540214835.6,286047002.9,Y
1540214855.5,286047001.6,P
1540214875.3,286047002.1,P
1540214895.1,286047002.6,P
1540214915.9,286047002.2,Y
1540214935.7,286047000.8,P
1540214955.5,286047002.3,P
1540214975.4,286047002.6,P
1540214995.2,286047000.4,N
1540215015.1,286047000.5,N
1540215016.0,286047000.5,N
1540215035.8,286047000.3,N
1540215055.6,286047000.9,N
1540215075.5,286047000.3,N
1540215095.3,286047000.4,N
1540215115.2,286047001.0,N
1540215135.9,286046998.8,N
1540215155.7,286046999.6,N
1540215175.6,286046998.3,N
1540215195.4,286046998.1,N
1540215215.3,286047000.9,N
1540215235.1,286047000.6,N
1540215236.0,286047000.6,N
1540215255.8,286046999.9,N
1540215275.7,286047002.7,N
1540215295.5,286046999.7,N
1540215315.3,286047000.2,N
1540215335.2,286047000.1,N
1540215355.0,286047002.8,N
1540215355.9,286047002.8,N
1540215375.8,286046999.7,N
1540215395.6,286047001.9,N
1540215415.4,286047001.4,N
1540215435.3,286047001.5,N
1540215455.1,286047003.8,Y
1540215475.9,286047004.6,P
1540215495.7,286047008.7,P
1540215515.5,286047007.7,N
1540215535.4,286047007.7,N
1540215555.2,286047008.5,N
1540215575.0,286047012.3,Y
1540215575.9,286047012.3,P
1540215595.8,286047003.2,N
1540215615.6,286047005.1,N
1540215635.5,286047003.8,N
1540215655.3,286047002.0,N
1540215675.1,286047002.7,N
1540215695.9,286047004.4,N
1540215715.7,286047004.3,N
1540215735.5,286047001.6,N
1540215755.4,286047001.9,N
1540215775.2,286047001.8,N
1540215795.1,286047001.7,N
1540215796.0,286047001.7,N
1540215815.8,286047001.8,N
1540215835.6,286047001.7,N
1540215885.5,286047002.4,E
1540215895.4,286047000.6,N
1540215915.3,286047000.0,P
1540215935.1,286047000.9,N
1540215955.8,286047002.6,Y
1540215975.7,286047001.9,P
1540215995.5,286047002.0,N
1540216015.4,286047002.5,P
1540216035.2,286047001.4,N
1540216055.0,286047001.3,N
1540216055.9,286047001.3,N
1540216075.8,286047002.6,Y
1540216095.6,286047001.1,P
1540216115.4,286047000.5,N
1540216135.3,286047000.9,N
1540216155.1,286047000.6,N
1540216175.9,286047000.4,N
1540216195.7,286047001.5,Y
1540216215.5,286047002.7,P
1540216235.4,286047000.2,N
1540216255.2,286047002.8,N
1540216275.0,286047002.1,N
1540216276.0,286047002.1,N
1540216295.8,286047002.2,N
1540216315.6,286047002.0,N
1540216335.5,286047003.6,Y
1540216355.3,286047002.1,P
1540216375.1,286047002.2,P
1540216395.9,286047001.3,P
1540216415.7,286047001.8,Y
1540216435.6,286047002.3,P
1540216455.4,286047001.8,P
1540216475.2,286047001.5,P
1540216495.1,286047001.8,Y
1540216496.0,286047001.8,P
1540216515.8,286047002.8,P
1540216535.7,286046999.7,N
1540216555.5,286047002.5,N
1540216575.3,286047002.6,N
1540216595.2,286047002.3,N
1540216615.9,286047001.5,N
1540216635.7,286047005.6,Y
1540216655.6,286047004.2,P
1540216675.4,286047003.7,P
1540216695.3,286047003.0,N
1540216715.1,286047005.8,Y
1540216716.0,286047005.8,P
1540216735.8,286047004.3,P
1540216755.7,286047001.5,N
1540216775.5,286047001.8,N
1540216795.3,286047004.4,N
